Tracking 23757 objects as of 25-Oct-2021
HD Live streaming from Space Station
objects crossing your sky now

FREGAT DEB

Track FREGAT DEB now!
10-day predictions


NORAD ID: 45979
Int'l Code: 2011-037GL
Perigee: 710.1 km
Apogee: 4,040.5 km
Inclination: 51.5 °
Period: 135.7 minutes
Semi major axis: 8746 km
RCS: Unknown
Launch date: July 18, 2011
Source: Commonwealth of Independent States (former USSR) (CIS)
Launch site: TYURATAM MISSILE AND SPACE COMPLEX (TTMTR)

Note: This is SATELLITE DEBRIS
aabbcc
Your satellite tracking list
Your tracking list is empty




NASA's NSSDC Master Catalog

Two Line Element Set (TLE):
1 45979U 11037GL  21297.45473064 -.00000245  00000-0 -31862-3 0  9996
2 45979  51.5135 352.8988 1903917 143.5273 231.1734 10.61368822 48644
Source of the keplerian elements: AFSPC